Regional Weather Roundup
Issued by NWS

Home | Current Version | Previous Version | Graphics & Text | Print | Product List | Glossary On
Versions: 1 2 3 4 5 6 7 8 9 10 11 12 13 14 15 16 17 18 19 20 21 22 23 24 25 26 27 28 29 30 31 32 33 34 35 36 37 38 39 40 41 42 43 44 45 46 47 48 49 50
631
ASUS43 KIND 251500
RWRIN

WEATHER ROUNDUP FOR INDIANA
NATIONAL WEATHER SERVICE INDIANAPOLIS IN
1100 AM EDT SUN JUN 25 2017

NOTE: "FAIR" INDICATES FEW OR NO CLOUDS BELOW 12,000 FEET WITH NO
SIGNIFICANT WEATHER AND/OR OBSTRUCTIONS TO VISIBILITY.

* - STATION DOES NOT REPORT WEATHER SUCH AS PRECIPITATION OR FOG.

+ - STATION NOT QUALITY CONTROLLED BY THE NATIONAL WEATHER SERVICE.
    USE DATA WITH CAUTION...ESPECIALLY DEWPOINT AND RELATIVE
    HUMIDITY OBSERVATIONS.

INZ001>003-010>013-019-020-251600-
NORTHWEST INDIANA

CITY           SKY/WX    TMP DP  RH WIND       PRES   REMARKS
GARY /AIRPORT/ MOSUNNY   68  45  42 W16G28    30.12S
KNOX *+        SUNNY     64  36  34 W17       30.12S
MICHIGAN CITY+ SUNNY     64  48  55 NW9G16    30.12R
MONTICELLO +   SUNNY     66  46  47 W12       30.13S

$$

LMZ046-743>745-251600-
SOUTHERN LAKE MICHIGAN

STATION/POSITION TIME  TEMP    WIND        PRES    WAVE
                       AIR SEA DIR/SP/G            HT
                 (UTC) (F)     (DEG/KT/KT) (MB)    (FT)
BURNS HARBOR     1440   63     270/ 13/ 14 1020.0S
MICHIGAN CITY    1430   61     250/ 17/ 18   N/A
5NW MICH CITY    1450   62 66  270/ 14/ 17   N/A     4

$$

INZ004-005-014>016-021>024-251600-
NORTH CENTRAL INDIANA

CITY           SKY/WX    TMP DP  RH WIND       PRES   REMARKS
GOSHEN         MOSUNNY   65  45  48 W14G23    30.10R
PERU/GRISSOM   SUNNY     66  48  52 W12       30.13R
SOUTH BEND     MOSUNNY   65  46  50 W16G26    30.10S

$$

INZ006>009-017-018-025>027-251600-
NORTHEAST INDIANA

CITY           SKY/WX    TMP DP  RH WIND       PRES   REMARKS
FORT WAYNE     MOSUNNY   67  48  50 W14G21    30.11R
KENDALLVILLE + MOSUNNY   65  45  49 NW9G20    30.09S

$$

INZ028-029-035-036-043>045-051>053-251600-
WEST CENTRAL INDIANA

CITY           SKY/WX    TMP DP  RH WIND       PRES   REMARKS
GREENCASTLE +  SUNNY     68  48  49 W6        30.18S
LAFAYETTE      SUNNY     66  50  56 W10       30.14S
TERRE HAUTE    SUNNY     70  51  51 NW7       30.17S

$$

INZ030>032-037>040-046>048-054>057-064-065-251600-
CENTRAL INDIANA

CITY           SKY/WX    TMP DP  RH WIND       PRES   REMARKS
GREENWOOD *+   SUNNY     68  49  51 W9        30.17R
INDIANAPOLIS   SUNNY     69  49  48 W12       30.16S
-EAGLE CREEK   SUNNY     68  48  48 NW10      30.15S
KOKOMO +       SUNNY     66  48  52 W15       30.15R
MT COMFORT *+  SUNNY     68  50  52 W9        30.16S
SHELBYVILLE    SUNNY     72  51  47 W14       30.15S

$$

INZ033-034-041-042-049-050-058-059-251600-
EAST CENTRAL INDIANA

CITY           SKY/WX    TMP DP  RH WIND       PRES   REMARKS
MUNCIE         SUNNY     68  48  48 NW12      30.14R
RICHMOND +     SUNNY     68  50  52 W15G29    30.15F HAZE

$$

INZ060-061-067>069-081>083-085>088-251600-
SOUTHWEST INDIANA

CITY           SKY/WX    TMP DP  RH WIND       PRES   REMARKS
EVANSVILLE     SUNNY     77  51  40 W10       30.21S
HUNTINGBURG *+ SUNNY     75  53  46 W14       30.21S

$$

INZ062-063-066-070>080-084-089>092-251600-
SOUTH CENTRAL AND SOUTHEAST INDIANA

CITY           SKY/WX    TMP DP  RH WIND       PRES   REMARKS
BLOOMINGTON    SUNNY     71  49  45 W12G24    30.17F
MADISON *+     SUNNY     73  46  38 W12       30.21R
SEYMOUR +      SUNNY     75  52  43 W17G25    30.18S

$$





USA.gov is the U.S. government's official web portal to all federal, state and local government web resources and services.